When you browse on this site, cookies collect data to enhance your experience and personalize the content and advertising you see.
Visit our Privacy Policy to learn more. By continuing to use the site, you agree to this use of cookies and data.
  • In Hungary
  • List of Countries
  • For 7 days
  • Water Temperature
  • Satellite Maps
  • Weather Map
  • News
  • Weather Widgets
  • user-avatar
    Login

    Hourly Weather Madrid

    Today, 24 March, Sunday

    Time Temperature Precipitation Wind Pressure Humidity
    00:00 +12°C° 0 mm 2 mps 711 mmHg 59%
    01:00 +10°C° 0 mm 2 mps 711 mmHg 59%
    02:00 +10°C° 0 mm 2 mps 710 mmHg 59%
    03:00 +10°C° 0 mm 2 mps 710 mmHg 58%
    04:00 +10°C° 0 mm 2 mps 710 mmHg 57%
    05:00 +9°C° 0 mm 3 mps 710 mmHg 57%
    06:00 +9°C° 0 mm 3 mps 710 mmHg 56%
    07:00 +11°C° 0 mm 3 mps 711 mmHg 49%
    08:00 +12°C° 0 mm 3 mps 711 mmHg 43%
    09:00 +14°C° 0 mm 4 mps 711 mmHg 37%
    10:00 +17°C° 0 mm 4 mps 711 mmHg 33%
    11:00 +18°C° 0 mm 4 mps 710 mmHg 28%
    12:00 +19°C° 0 mm 4 mps 710 mmHg 23%
    13:00 +20°C° 0 mm 4 mps 710 mmHg 22%
    14:00 +21°C° 0 mm 3 mps 710 mmHg 21%
    15:00 +21°C° 0 mm 3 mps 709 mmHg 19%
    16:00 +21°C° 0 mm 2 mps 709 mmHg 22%
    17:00 +20°C° 0 mm 2 mps 709 mmHg 25%
    18:00 +20°C° 0 mm 1 mps 709 mmHg 28%
    19:00 +19°C° 0 mm 1 mps 709 mmHg 30%
    20:00 +16°C° 0 mm 1 mps 710 mmHg 31%
    21:00 +15°C° 0 mm 2 mps 710 mmHg 32%
    22:00 +14°C° 0 mm 2 mps 710 mmHg 34%
    23:00 +14°C° 0 mm 2 mps 710 mmHg 36%

    Tomorrow, 25 March, Monday

    Time Temperature Precipitation Wind Pressure Humidity
    00:00 +12°C° 0 mm 3 mps 710 mmHg 38%
    01:00 +11°C° 0 mm 3 mps 710 mmHg 40%
    02:00 +11°C° 0 mm 3 mps 710 mmHg 42%
    03:00 +10°C° 0 mm 3 mps 710 mmHg 44%
    04:00 +10°C° 0 mm 3 mps 710 mmHg 45%
    05:00 +10°C° 0 mm 3 mps 710 mmHg 45%
    06:00 +9°C° 0 mm 3 mps 710 mmHg 46%
    07:00 +11°C° 0 mm 4 mps 710 mmHg 42%
    08:00 +12°C° 0 mm 4 mps 710 mmHg 38%
    09:00 +14°C° 0 mm 5 mps 710 mmHg 35%
    10:00 +15°C° 0 mm 4 mps 710 mmHg 31%
    11:00 +18°C° 0 mm 4 mps 710 mmHg 28%
    12:00 +20°C° 0 mm 4 mps 709 mmHg 24%
    13:00 +20°C° 0 mm 4 mps 709 mmHg 22%
    14:00 +21°C° 0 mm 4 mps 708 mmHg 21%
    15:00 +21°C° 0 mm 4 mps 708 mmHg 19%
    16:00 +21°C° 0 mm 4 mps 708 mmHg 21%
    17:00 +20°C° 0 mm 4 mps 707 mmHg 23%
    18:00 +19°C° 0 mm 3 mps 707 mmHg 25%
    19:00 +16°C° 0 mm 5 mps 708 mmHg 29%
    20:00 +15°C° 0 mm 6 mps 708 mmHg 34%
    21:00 +12°C° 0 mm 7 mps 709 mmHg 38%
    22:00 +11°C° 0 mm 7 mps 709 mmHg 38%
    23:00 +10°C° 0 mm 7 mps 709 mmHg 39%

    Day after tomorrow, 26 March, Tuesday

    Time Temperature Precipitation Wind Pressure Humidity
    00:00 +9°C° 0 mm 7 mps 709 mmHg 40%
    01:00 +8°C° 0 mm 7 mps 709 mmHg 41%
    02:00 +8°C° 0 mm 6 mps 708 mmHg 42%
    03:00 +7°C° 0 mm 6 mps 708 mmHg 43%
    04:00 +7°C° 0 mm 6 mps 708 mmHg 44%
    05:00 +7°C° 0 mm 6 mps 708 mmHg 44%
    06:00 +5°C° 0 mm 6 mps 708 mmHg 44%
    07:00 +8°C° 0 mm 6 mps 708 mmHg 42%
    08:00 +9°C° 0 mm 7 mps 708 mmHg 39%
    09:00 +10°C° 0 mm 7 mps 708 mmHg 36%
    10:00 +13°C° 0 mm 6 mps 708 mmHg 34%
    11:00 +15°C° 0 mm 6 mps 707 mmHg 32%
    12:00 +17°C° 0 mm 5 mps 707 mmHg 29%
    13:00 +19°C° 0 mm 5 mps 707 mmHg 27%
    14:00 +20°C° 0 mm 5 mps 707 mmHg 24%
    15:00 +21°C° 0 mm 4 mps 706 mmHg 22%
    16:00 +20°C° 0 mm 5 mps 706 mmHg 26%
    17:00 +19°C° 0 mm 5 mps 707 mmHg 30%
    18:00 +17°C° 0 mm 5 mps 707 mmHg 34%
    19:00 +15°C° 0 mm 5 mps 707 mmHg 39%
    20:00 +12°C° 0 mm 5 mps 708 mmHg 43%
    21:00 +9°C° 0 mm 5 mps 709 mmHg 48%
    22:00 +10°C° 0 mm 4 mps 709 mmHg 49%
    23:00 +8°C° 0 mm 4 mps 709 mmHg 51%

    27 March, Wednesday

    Time Temperature Precipitation Wind Pressure Humidity
    00:00 +8°C° 0 mm 3 mps 709 mmHg 52%
    01:00 +7°C° 0 mm 3 mps 710 mmHg 54%
    02:00 +7°C° 0 mm 3 mps 710 mmHg 55%
    03:00 +5°C° 0 mm 3 mps 710 mmHg 57%
    04:00 +5°C° 0 mm 3 mps 710 mmHg 55%
    05:00 +5°C° 0 mm 3 mps 710 mmHg 53%
    06:00 +4°C° 0 mm 3 mps 710 mmHg 52%
    07:00 +7°C° 0 mm 3 mps 710 mmHg 48%
    08:00 +7°C° 0 mm 4 mps 710 mmHg 45%
    09:00 +10°C° 0 mm 4 mps 711 mmHg 42%
    10:00 +11°C° 0 mm 4 mps 710 mmHg 38%
    11:00 +12°C° 0 mm 4 mps 710 mmHg 35%
    12:00 +13°C° 0 mm 3 mps 710 mmHg 31%
    13:00 +14°C° 0 mm 3 mps 710 mmHg 29%
    14:00 +16°C° 0 mm 3 mps 709 mmHg 26%
    15:00 +17°C° 0 mm 2 mps 709 mmHg 24%
    16:00 +17°C° 0 mm 2 mps 709 mmHg 26%
    17:00 +17°C° 0 mm 2 mps 709 mmHg 27%
    18:00 +16°C° 0 mm 2 mps 709 mmHg 29%
    19:00 +15°C° 0 mm 2 mps 710 mmHg 30%
    20:00 +12°C° 0 mm 3 mps 711 mmHg 32%
    21:00 +11°C° 0 mm 3 mps 711 mmHg 33%
    22:00 +10°C° 0 mm 3 mps 712 mmHg 38%
    23:00 +9°C° 0 mm 2 mps 712 mmHg 43%

    28 March, Thursday

    Time Temperature Precipitation Wind Pressure Humidity
    00:00 +8°C° 0 mm 1 mps 712 mmHg 48%
    01:00 +8°C° 0 mm 1 mps 712 mmHg 50%
    02:00 +7°C° 0 mm 1 mps 712 mmHg 52%
    03:00 +6°C° 0 mm 0 mps 712 mmHg 54%
    04:00 +5°C° 0 mm 0 mps 712 mmHg 55%
    05:00 +5°C° 0 mm 0 mps 712 mmHg 55%
    06:00 +5°C° 0 mm 0 mps 712 mmHg 55%
    07:00 +7°C° 0 mm 0 mps 712 mmHg 48%
    08:00 +8°C° 0 mm 0 mps 713 mmHg 41%
    09:00 +10°C° 0 mm 0 mps 713 mmHg 33%
    10:00 +12°C° 0 mm 0 mps 712 mmHg 30%
    11:00 +14°C° 0 mm 1 mps 712 mmHg 26%
    12:00 +15°C° 0 mm 1 mps 712 mmHg 22%
    13:00 +16°C° 0 mm 1 mps 711 mmHg 22%
    14:00 +18°C° 0 mm 1 mps 711 mmHg 21%
    15:00 +19°C° 0 mm 1 mps 710 mmHg 21%
    16:00 +18°C° 0 mm 1 mps 710 mmHg 24%
    17:00 +18°C° 0 mm 1 mps 710 mmHg 28%
    18:00 +16°C° 0 mm 1 mps 710 mmHg 31%
    19:00 +15°C° 0 mm 2 mps 711 mmHg 32%
    20:00 +13°C° 0 mm 3 mps 711 mmHg 33%
    21:00 +12°C° 0 mm 3 mps 712 mmHg 34%
    22:00 +11°C° 0 mm 3 mps 712 mmHg 40%
    23:00 +10°C° 0 mm 3 mps 712 mmHg 47%

    29 March, Friday

    Time Temperature Precipitation Wind Pressure Humidity
    00:00 +8°C° 0 mm 3 mps 712 mmHg 54%
    01:00 +8°C° 0 mm 2 mps 712 mmHg 58%
    02:00 +7°C° 0 mm 2 mps 712 mmHg 62%
    03:00 +8°C° 0 mm 1 mps 712 mmHg 67%
    04:00 +7°C° 0 mm 1 mps 712 mmHg 67%
    05:00 +7°C° 0 mm 1 mps 712 mmHg 68%
    06:00 +7°C° 0 mm 1 mps 712 mmHg 69%
    07:00 +8°C° 0 mm 1 mps 712 mmHg 62%
    08:00 +10°C° 0 mm 1 mps 712 mmHg 55%
    09:00 +10°C° 0 mm 2 mps 712 mmHg 47%
    10:00 +13°C° 0 mm 2 mps 711 mmHg 42%
    11:00 +14°C° 0 mm 2 mps 711 mmHg 36%
    12:00 +16°C° 0 mm 2 mps 711 mmHg 31%
    13:00 +16°C° 0 mm 2 mps 710 mmHg 28%
    14:00 +17°C° 0 mm 2 mps 710 mmHg 26%
    15:00 +18°C° 0 mm 2 mps 709 mmHg 24%
    16:00 +17°C° 0 mm 2 mps 709 mmHg 27%
    17:00 +17°C° 0 mm 2 mps 709 mmHg 29%
    18:00 +16°C° 0 mm 2 mps 709 mmHg 32%
    19:00 +14°C° 0 mm 3 mps 709 mmHg 38%
    20:00 +13°C° 0 mm 4 mps 710 mmHg 44%
    21:00 +10°C° 0 mm 5 mps 710 mmHg 50%
    22:00 +10°C° 0 mm 4 mps 710 mmHg 54%
    23:00 +9°C° 0 mm 3 mps 710 mmHg 59%
    Show more